This is the latest recevied weather packets stored in our database for station/object WE1C. If no packets are shown the sender has not sent any weather packets the latest 10 day(s).
| Time | Temp. | Humidity | Pressure | Rain* | Wind** | Luminosity | Snow |
|---|---|---|---|---|---|---|---|
| 1777238657 | 15° C | 39% | 1049 hPa | 0 mm | - | 104 W/m² | - |
| 1777238354 | 15° C | 40% | 1048.8 hPa | 0 mm | - | 156 W/m² | - |
| 1777238050 | 15° C | 38% | 1049.1 hPa | 0 mm | - | 78 W/m² | - |
| 1777237747 | 15° C | 38% | 1048.9 hPa | 0 mm | - | 56 W/m² | - |
| 1777237444 | 15° C | 39% | 1048.9 hPa | 0 mm | - | 69 W/m² | - |
| 1777237141 | 15° C | 39% | 1048.9 hPa | 0 mm | - | 63 W/m² | - |
| 1777236839 | 15° C | 39% | 1048.9 hPa | 0 mm | - | 69 W/m² | - |
| 1777236539 | 15° C | 40% | 1048.8 hPa | 0 mm | - | 59 W/m² | - |
| 1777236236 | 15° C | 39% | 1048.6 hPa | 0 mm | - | 66 W/m² | - |
| 1777235930 | 15.56° C | 37% | 1048.7 hPa | 0 mm | - | 98 W/m² | - |
| 1777235628 | 15.56° C | 36% | 1048.6 hPa | 0 mm | - | 230 W/m² | - |
| 1777235325 | 15.56° C | 37% | 1048.5 hPa | 0 mm | - | 229 W/m² | - |
| 1777235021 | 15.56° C | 37% | 1048.5 hPa | 0 mm | - | 127 W/m² | - |
| 1777234717 | 15.56° C | 37% | 1048.6 hPa | 0 mm | - | 334 W/m² | - |
| 1777234413 | 15.56° C | 38% | 1048.5 hPa | 0 mm | - | 367 W/m² | - |
| 1777234108 | 15.56° C | 36% | 1048.6 hPa | 0 mm | - | 528 W/m² | - |
| 1777233805 | 16.11° C | 35% | 1048.6 hPa | 0 mm | - | 452 W/m² | - |
| 1777233501 | 16.11° C | 36% | 1048.6 hPa | 0 mm | - | 442 W/m² | - |
| 1777233200 | 16.11° C | 35% | 1048.6 hPa | 0 mm | - | 415 W/m² | - |
| 1777232895 | 15.56° C | 35% | 1048.5 hPa | 0 mm | - | 596 W/m² | - |
| 1777232594 | 16.11° C | 37% | 1048.4 hPa | 0 mm | - | 606 W/m² | - |
| 1777232292 | 16.11° C | 35% | 1048.5 hPa | 0 mm | - | 609 W/m² | - |
| 1777231988 | 15.56° C | 37% | 1048.5 hPa | 0 mm | - | 624 W/m² | - |
| 1777231685 | 16.11° C | 36% | 1048.5 hPa | 0 mm | - | 639 W/m² | - |
| 1777231382 | 16.11° C | 35% | 1048.6 hPa | 0 mm | - | 643 W/m² | - |
* Rain latest hour (hover to see other rain measurements)
** Current wind speed in m/s (hover to see current wind gust speed)